This demonstration page uses our WeatherBlox Daily Observations layout. Learn more.

Left ArrowRight Arrow

47.50024, -111.30081

Hourly Observations for June 4, 2020

Temp ( °F °C ) Dew Point ( °F °C ) Humidity (%) Winds ( mph kmh ) Pressure ( in mb ) Visibility ( mi km ) Precip ( " mm )
12:53 am 00:53 Clear 57 13.9 28 -2.2 33 33 ESE 5 7 29.85 1011 10 16 0.00 0.00
1:53 am 01:53 Clear 54 12.2 32 0 43 43 SE 5 7 29.84 1011 10 16 0.00 0.00
2:53 am 02:53 Clear 55 12.8 28 -2.2 35 35 NE 6 9 29.83 1010 10 16 0.00 0.00
3:53 am 03:53 Clear 54 12.2 29 -1.7 38 38 Calm 29.82 1010 10 16 0.00 0.00
4:53 am 04:53 Partly Cloudy 53 11.7 30 -1.1 41 41 Calm 29.82 1010 10 16 0.00 0.00
5:53 am 05:53 Cloudy 49 9.4 35 1.7 59 59 WSW 7 11 29.84 1011 10 16 0.00 0.00
6:53 am 06:53 Cloudy 55 12.8 32 0 42 42 WNW 6 9 29.83 1010 10 16 0.00 0.00
7:53 am 07:53 Mostly Cloudy 59 15 31 -0.6 35 35 NW 6 9 29.83 1010 10 16 0.00 0.00
8:53 am 08:53 Cloudy 60 15.6 32 0 35 35 W 6 9 29.86 1011 10 16 0.00 0.00
9:53 am 09:53 Cloudy 62 16.7 33 0.6 34 34 WNW 6 9 29.86 1011 10 16 0.00 0.00
10:53 am 10:53 Sunny 65 18.3 32 0 29 29 undefined N/A 29.85 1011 10 16 0.00 0.00
11:53 am 11:53 Mostly Cloudy 68 20 32 0 26 26 undefined N/A 29.85 1011 10 16 0.00 0.00
12:53 pm 12:53 Cloudy 66 18.9 34 1.1 30 30 NNW 10 17 29.85 1011 10 16 0.00 0.00
1:53 pm 13:53 Cloudy 66 18.9 33 0.6 29 29 NW 10 17 29.85 1011 10 16 0.00 0.00
2:53 pm 14:53 Partly Cloudy 70 21.1 34 1.1 27 27 NNW 10 17 29.83 1010 10 16 0.00 0.00
3:53 pm 15:53 Partly Cloudy 70 21.1 34 1.1 27 27 NW 12 19 29.85 1011 10 16 0.00 0.00
4:53 pm 16:53 Sunny 70 21.1 33 0.6 26 26 VRB 5 7 29.84 1011 10 16 0.00 0.00
5:53 pm 17:53 Sunny 67 19.4 34 1.1 30 30 N 12 19 29.87 1011 10 16 0.00 0.00
6:53 pm 18:53 Sunny 66 18.9 34 1.1 30 30 NE 5 7 29.85 1011 10 16 0.00 0.00
7:53 pm 19:53 Sunny 64 17.8 38 3.3 38 38 N 5 7 29.86 1011 10 16 0.00 0.00
8:53 pm 20:53 Partly Cloudy 61 16.1 36 2.2 39 39 E 5 7 29.87 1011 10 16 0.00 0.00
9:53 pm 21:53 Clear 56 13.3 36 2.2 47 47 ENE 9 15 29.90 1013 10 16 0.00 0.00
10:53 pm 22:53 Clear 57 13.9 36 2.2 45 45 ENE 10 17 29.91 1013 10 16 0.00 0.00
11:53 pm 23:53 Clear 56 13.3 36 2.2 47 47 ENE 10 17 29.90 1013 10 16 0.00 0.00

Powered by AerisWeather